| time (UTC) | temp F | wind direction | speed MPH | gust MPH | rain 1hr in | rain 24hr in | rain mn in | humidity % | barometer mb |
| 20260508233813 | 65 | 270 | 1.0 | 2.0 | 0.00 | 0.00 | 0.00 | 69 | 1010.7 |
| 20260508232916 | 65 | 270 | 0.0 | 2.0 | 0.00 | 0.00 | 0.00 | 69 | 1010.9 |
| 20260508231804 | 65 | 270 | 0.0 | 2.0 | 0.00 | 0.00 | 0.00 | 69 | 1011.0 |
| 20260508231115 | 65 | 270 | 0.0 | 2.0 | 0.00 | 0.00 | 0.00 | 69 | 1011.0 |
| 20260508230004 | 65 | 270 | 0.0 | 2.0 | 0.00 | 0.00 | 0.00 | 68 | 1011.0 |
| 20260508225615 | 66 | 282 | 0.0 | 4.0 | 0.00 | 0.00 | 0.00 | 68 | 1010.9 |
| 20260508224503 | 66 | 235 | 0.0 | 4.0 | 0.00 | 0.00 | 0.00 | 68 | 1011.3 |
| 20260508223603 | 66 | 202 | 1.0 | 2.0 | 0.00 | 0.00 | 0.00 | 67 | 1011.0 |
| 20260508222704 | 67 | 226 | 0.0 | 4.0 | 0.00 | 0.00 | 0.00 | 66 | 1011.1 |
| 20260508222014 | 67 | 241 | 2.0 | 4.0 | 0.00 | 0.00 | 0.00 | 66 | 1011.2 |
| 20260508221116 | 67 | 238 | 1.0 | 4.0 | 0.00 | 0.00 | 0.00 | 65 | 1011.2 |
| 20260508220213 | 67 | 245 | 0.0 | 4.0 | 0.00 | 0.00 | 0.00 | 65 | 1011.2 |
| 20260508215403 | 67 | 252 | 2.0 | 4.0 | 0.00 | 0.00 | 0.00 | 64 | 1011.2 |
| 20260508214503 | 67 | 249 | 2.0 | 4.0 | 0.00 | 0.00 | 0.00 | 63 | 1011.3 |
| 20260508213603 | 67 | 264 | 2.0 | 4.0 | 0.00 | 0.00 | 0.00 | 62 | 1011.3 |
| 20260508212917 | 67 | 279 | 3.0 | 4.0 | 0.00 | 0.00 | 0.00 | 62 | 1011.3 |
| 20260508211804 | 67 | 243 | 1.0 | 4.0 | 0.00 | 0.00 | 0.00 | 60 | 1011.0 |
| 20260508211117 | 67 | 235 | 2.0 | 4.0 | 0.00 | 0.00 | 0.00 | 60 | 1011.5 |
| 20260508210219 | 67 | 116 | 2.0 | 4.0 | 0.00 | 0.00 | 0.00 | 59 | 1011.1 |
| 20260508205403 | 67 | 233 | 1.0 | 4.0 | 0.00 | 0.00 | 0.00 | 58 | 1011.3 |
| 20260508204503 | 68 | 258 | 1.0 | 4.0 | 0.00 | 0.00 | 0.00 | 58 | 1011.5 |
| 20260508203603 | 68 | 292 | 1.0 | 4.0 | 0.00 | 0.00 | 0.00 | 57 | 1011.6 |
| 20260508202704 | 68 | 271 | 2.0 | 7.0 | 0.00 | 0.00 | 0.00 | 56 | 1011.6 |
| 20260508201804 | 68 | 239 | 2.0 | 7.0 | 0.00 | 0.00 | 0.00 | 55 | 1011.1 |
| 20260508201117 | 68 | 252 | 2.0 | 7.0 | 0.00 | 0.00 | 0.00 | 54 | 1011.0 |
| 20260508200215 | 68 | 241 | 2.0 | 4.0 | 0.00 | 0.00 | 0.00 | 52 | 1010.8 |
| 20260508195403 | 69 | 124 | 2.0 | 4.0 | 0.00 | 0.00 | 0.00 | 51 | 1010.7 |
| 20260508194714 | 69 | 185 | 2.0 | 4.0 | 0.00 | 0.00 | 0.00 | 50 | 1010.7 |
| 20260508193816 | 69 | 292 | 0.0 | 4.0 | 0.00 | 0.00 | 0.00 | 52 | 1010.9 |
| 20260508192913 | 69 | 260 | 2.0 | 4.0 | 0.00 | 0.00 | 0.00 | 51 | 1010.8 |
| 20260508192016 | 69 | 201 | 2.0 | 2.0 | 0.00 | 0.00 | 0.00 | 51 | 1010.5 |
| 20260508191113 | 69 | 244 | 1.0 | 2.0 | 0.00 | 0.00 | 0.00 | 51 | 1010.2 |
| 20260508190215 | 69 | 243 | 0.0 | 2.0 | 0.00 | 0.00 | 0.00 | 50 | 1010.4 |
| 20260508185403 | 69 | 189 | 2.0 | 2.0 | 0.00 | 0.00 | 0.00 | 50 | 1010.3 |
| 20260508184504 | 69 | 198 | 0.0 | 4.0 | 0.00 | 0.00 | 0.00 | 50 | 1010.0 |
| 20260508183817 | 69 | 226 | 1.0 | 4.0 | 0.00 | 0.00 | 0.00 | 51 | 1010.1 |
| 20260508182914 | 68 | 292 | 1.0 | 4.0 | 0.00 | 0.00 | 0.00 | 56 | 1010.1 |
| 20260508181804 | 68 | 302 | 4.0 | 9.0 | 0.00 | 0.00 | 0.00 | 57 | 1010.2 |
| 20260508180903 | 69 | 288 | 4.0 | 8.0 | 0.00 | 0.00 | 0.00 | 56 | 1009.7 |
| 20260508180004 | 69 | 266 | 4.0 | 8.0 | 0.00 | 0.00 | 0.00 | 56 | 1009.5 |
| 20260508175618 | 69 | 267 | 5.0 | 8.0 | 0.00 | 0.00 | 0.00 | 55 | 1009.4 |
| 20260508174503 | 69 | 260 | 4.0 | 7.0 | 0.00 | 0.00 | 0.00 | 56 | 1009.4 |
| 20260508173817 | 69 | 254 | 4.0 | 7.0 | 0.00 | 0.00 | 0.00 | 56 | 1009.2 |
| 20260508172915 | 69 | 245 | 2.0 | 8.0 | 0.00 | 0.00 | 0.00 | 56 | 1008.9 |
| 20260508171804 | 69 | 174 | 2.0 | 7.0 | 0.00 | 0.00 | 0.00 | 56 | 1008.5 |
| 20260508171115 | 69 | 216 | 2.0 | 8.0 | 0.00 | 0.00 | 0.00 | 56 | 1009.0 |
| 20260508170217 | 69 | 128 | 4.0 | 8.0 | 0.00 | 0.00 | 0.00 | 55 | 1009.3 |
| 20260508165613 | 69 | 127 | 2.0 | 8.0 | 0.00 | 0.00 | 0.00 | 53 | 1009.1 |
| 20260508164503 | 70 | 114 | 4.0 | 7.0 | 0.00 | 0.00 | 0.00 | 52 | 1009.0 |
| 20260508163813 | 70 | 175 | 2.0 | 6.0 | 0.00 | 0.00 | 0.00 | 51 | 1008.8 |
| 20260508162915 | 70 | 109 | 2.0 | 8.0 | 0.00 | 0.00 | 0.00 | 51 | 1008.9 |
| 20260508162018 | 70 | 103 | 3.0 | 11.0 | 0.00 | 0.00 | 0.00 | 50 | 1008.9 |
| 20260508161115 | 71 | 133 | 4.0 | 8.0 | 0.00 | 0.00 | 0.00 | 49 | 1008.7 |
| 20260508160217 | 71 | 127 | 2.0 | 6.0 | 0.00 | 0.00 | 0.00 | 48 | 1008.9 |
| 20260508155614 | 71 | 139 | 2.0 | 8.0 | 0.00 | 0.00 | 0.00 | 49 | 1009.0 |
| 20260508154503 | 71 | 227 | 5.0 | 11.0 | 0.00 | 0.00 | 0.00 | 48 | 1008.9 |
| 20260508153813 | 71 | 220 | 4.0 | 11.0 | 0.00 | 0.00 | 0.00 | 47 | 1008.8 |
| 20260508152916 | 71 | 106 | 3.0 | 9.0 | 0.00 | 0.00 | 0.00 | 47 | 1009.1 |
| 20260508151803 | 73 | 108 | 1.0 | 7.0 | 0.00 | 0.00 | 0.00 | 46 | 1008.8 |
| 20260508151115 | 72 | 126 | 3.0 | 8.0 | 0.00 | 0.00 | 0.00 | 47 | 1008.8 |
| 20260508150213 | 72 | 102 | 4.0 | 9.0 | 0.00 | 0.00 | 0.00 | 46 | 1009.1 |
| 20260508145403 | 74 | 126 | 3.0 | 9.0 | 0.00 | 0.00 | 0.00 | 44 | 1008.8 |
| 20260508144717 | 74 | 101 | 2.0 | 11.0 | 0.00 | 0.00 | 0.00 | 46 | 1008.7 |
| 20260508143604 | 73 | 133 | 4.0 | 11.0 | 0.00 | 0.00 | 0.00 | 47 | 1008.7 |
| 20260508142704 | 74 | 120 | 2.0 | 11.0 | 0.00 | 0.00 | 0.00 | 47 | 1008.9 |
| 20260508141803 | 73 | 186 | 2.0 | 8.0 | 0.00 | 0.00 | 0.00 | 48 | 1008.9 |
| 20260508140903 | 74 | 122 | 2.0 | 9.0 | 0.00 | 0.00 | 0.00 | 49 | 1009.1 |
| 20260508140213 | 75 | 140 | 2.0 | 9.0 | 0.00 | 0.00 | 0.00 | 46 | 1008.9 |
| 20260508135615 | 75 | 181 | 3.0 | 9.0 | 0.00 | 0.00 | 0.00 | 45 | 1009.0 |
| 20260508134503 | 76 | 228 | 4.0 | 7.0 | 0.00 | 0.00 | 0.00 | 44 | 1009.1 |
| 20260508133604 | 76 | 182 | 2.0 | 6.0 | 0.00 | 0.00 | 0.00 | 44 | 1009.4 |
| 20260508132917 | 77 | 214 | 2.0 | 8.0 | 0.00 | 0.00 | 0.00 | 43 | 1009.5 |
| 20260508132014 | 75 | 164 | 3.0 | 8.0 | 0.00 | 0.00 | 0.00 | 45 | 1009.4 |
| 20260508131117 | 73 | 116 | 4.0 | 8.0 | 0.00 | 0.00 | 0.00 | 45 | 1009.6 |
| 20260508130004 | 74 | 112 | 3.0 | 11.0 | 0.00 | 0.00 | 0.00 | 45 | 1009.8 |
| 20260508125616 | 74 | 128 | 2.0 | 11.0 | 0.00 | 0.00 | 0.00 | 45 | 1010.0 |
| 20260508124503 | 73 | 131 | 4.0 | 11.0 | 0.00 | 0.00 | 0.00 | 44 | 1010.0 |
| 20260508123815 | 73 | 126 | 4.0 | 14.0 | 0.00 | 0.00 | 0.00 | 43 | 1010.2 |
| 20260508122918 | 73 | 102 | 5.0 | 14.0 | 0.00 | 0.00 | 0.00 | 42 | 1010.4 |
| 20260508121804 | 73 | 221 | 2.0 | 13.0 | 0.00 | 0.00 | 0.00 | 43 | 1010.6 |
| 20260508121117 | 72 | 204 | 5.0 | 13.0 | 0.00 | 0.00 | 0.00 | 43 | 1010.9 |
| 20260508120215 | 72 | 243 | 2.0 | 11.0 | 0.00 | 0.00 | 0.00 | 47 | 1010.7 |
| 20260508115616 | 72 | 218 | 2.0 | 11.0 | 0.00 | 0.00 | 0.00 | 48 | 1010.6 |
| 20260508114503 | 73 | 226 | 2.0 | 7.0 | 0.00 | 0.00 | 0.00 | 50 | 1010.4 |
| 20260508113816 | 72 | 242 | 2.0 | 7.0 | 0.00 | 0.00 | 0.00 | 43 | 1010.7 |
| 20260508112704 | 72 | 192 | 2.0 | 4.0 | 0.00 | 0.00 | 0.00 | 47 | 1010.4 |
| 20260508111803 | 72 | 227 | 0.0 | 4.0 | 0.00 | 0.00 | 0.00 | 47 | 1010.8 |
| 20260508110903 | 72 | 272 | 2.0 | 6.0 | 0.00 | 0.00 | 0.00 | 47 | 1011.2 |
| 20260508110004 | 70 | 282 | 4.0 | 6.0 | 0.00 | 0.00 | 0.00 | 48 | 1011.0 |
| 20260508105403 | 71 | 264 | 3.0 | 6.0 | 0.00 | 0.00 | 0.00 | 48 | 1011.5 |
| 20260508104503 | 71 | 257 | 2.0 | 6.0 | 0.00 | 0.00 | 0.00 | 49 | 1011.4 |
| 20260508103603 | 71 | 271 | 2.0 | 7.0 | 0.00 | 0.00 | 0.00 | 47 | 1011.6 |
| 20260508102914 | 70 | 256 | 5.0 | 7.0 | 0.00 | 0.00 | 0.00 | 48 | 1011.9 |
| 20260508102016 | 71 | 256 | 4.0 | 6.0 | 0.00 | 0.00 | 0.00 | 47 | 1011.8 |
| 20260508101114 | 71 | 190 | 2.0 | 4.0 | 0.00 | 0.00 | 0.00 | 50 | 1011.7 |
| 20260508100004 | 70 | 170 | 1.0 | 4.0 | 0.00 | 0.00 | 0.00 | 53 | 1011.8 |
| 20260508095618 | 70 | 210 | 2.0 | 4.0 | 0.00 | 0.00 | 0.00 | 53 | 1012.1 |
| 20260508094715 | 70 | 114 | 2.0 | 6.0 | 0.00 | 0.00 | 0.00 | 54 | 1012.3 |
| 20260508093603 | 70 | 228 | 2.0 | 7.0 | 0.00 | 0.00 | 0.00 | 54 | 1012.6 |
| 20260508092704 | 70 | 227 | 1.0 | 8.0 | 0.00 | 0.00 | 0.00 | 53 | 1012.5 |
| 20260508092017 | 69 | 256 | 2.0 | 8.0 | 0.00 | 0.00 | 0.00 | 55 | 1012.3 |
| 20260508091114 | 70 | 206 | 3.0 | 6.0 | 0.00 | 0.00 | 0.00 | 54 | 1012.5 |
| 20260508090004 | 70 | 195 | 2.0 | 8.0 | 0.00 | 0.00 | 0.00 | 54 | 1012.6 |
| 20260508085403 | 69 | 202 | 2.0 | 8.0 | 0.00 | 0.00 | 0.00 | 55 | 1012.9 |
| 20260508084503 | 69 | 186 | 3.0 | 8.0 | 0.00 | 0.00 | 0.00 | 56 | 1012.8 |
| 20260508083813 | 69 | 210 | 2.0 | 6.0 | 0.00 | 0.00 | 0.00 | 56 | 1012.8 |
| 20260508082915 | 68 | 244 | 3.0 | 6.0 | 0.00 | 0.00 | 0.00 | 58 | 1012.9 |
| 20260508082018 | 68 | 180 | 2.0 | 4.0 | 0.00 | 0.00 | 0.00 | 57 | 1012.8 |
| 20260508081115 | 68 | 172 | 0.0 | 2.0 | 0.00 | 0.00 | 0.00 | 58 | 1012.7 |
| 20260508080004 | 68 | 230 | 1.0 | 6.0 | 0.00 | 0.00 | 0.00 | 59 | 1012.9 |
| 20260508075614 | 68 | 242 | 1.0 | 7.0 | 0.00 | 0.00 | 0.00 | 58 | 1013.0 |
| 20260508074716 | 68 | 239 | 4.0 | 8.0 | 0.00 | 0.00 | 0.00 | 58 | 1012.9 |
| 20260508073813 | 68 | 125 | 2.0 | 7.0 | 0.00 | 0.00 | 0.00 | 55 | 1013.2 |
| 20260508072704 | 68 | 89 | 2.0 | 4.0 | 0.00 | 0.00 | 0.00 | 54 | 1013.1 |
| 20260508072013 | 68 | 103 | 2.0 | 6.0 | 0.00 | 0.00 | 0.00 | 53 | 1013.0 |
| 20260508070903 | 68 | 109 | 3.0 | 6.0 | 0.00 | 0.00 | 0.00 | 49 | 1013.4 |
| 20260508070004 | 69 | 209 | 3.0 | 4.0 | 0.00 | 0.00 | 0.00 | 48 | 1013.4 |
| 20260508065614 | 69 | 201 | 1.0 | 4.0 | 0.00 | 0.00 | 0.00 | 47 | 1013.8 |
| 20260508064503 | 69 | 221 | 4.0 | 7.0 | 0.00 | 0.00 | 0.00 | 45 | 1013.6 |
| 20260508063603 | 68 | 222 | 2.0 | 6.0 | 0.00 | 0.00 | 0.00 | 44 | 1013.4 |
| 20260508062704 | 68 | 243 | 2.0 | 6.0 | 0.00 | 0.00 | 0.00 | 43 | 1013.2 |
| 20260508062014 | 68 | 257 | 2.0 | 9.0 | 0.00 | 0.00 | 0.00 | 43 | 1013.2 |
| 20260508060903 | 68 | 262 | 3.0 | 6.0 | 0.00 | 0.00 | 0.00 | 43 | 1013.0 |
| 20260508060004 | 68 | 271 | 2.0 | 7.0 | 0.00 | 0.00 | 0.00 | 44 | 1012.7 |
| 20260508055403 | 68 | 267 | 3.0 | 7.0 | 0.00 | 0.00 | 0.00 | 46 | 1012.5 |
| 20260508054503 | 68 | 263 | 3.0 | 4.0 | 0.00 | 0.00 | 0.00 | 49 | 1012.0 |
| 20260508053815 | 68 | 277 | 1.0 | 4.0 | 0.00 | 0.00 | 0.00 | 46 | 1011.9 |
| 20260508052917 | 68 | 292 | 2.0 | 2.0 | 0.00 | 0.00 | 0.00 | 52 | 1011.7 |
| 20260508052014 | 67 | 292 | 1.0 | 2.0 | 0.00 | 0.00 | 0.00 | 53 | 1011.7 |
| 20260508050903 | 67 | 292 | 0.0 | 2.0 | 0.00 | 0.00 | 0.00 | 54 | 1011.4 |
| 20260508050004 | 67 | 292 | 0.0 | 2.0 | 0.00 | 0.00 | 0.00 | 55 | 1011.6 |
| 20260508045616 | 67 | 292 | 1.0 | 2.0 | 0.00 | 0.00 | 0.00 | 55 | 1011.3 |
| 20260508044713 | 67 | 292 | 0.0 | 2.0 | 0.00 | 0.00 | 0.00 | 55 | 1011.1 |
| 20260508043816 | 66 | 292 | 0.0 | 2.0 | 0.00 | 0.00 | 0.00 | 55 | 1011.3 |
| 20260508042918 | 66 | 292 | 0.0 | 2.0 | 0.00 | 0.00 | 0.00 | 55 | 1011.1 |
| 20260508042015 | 66 | 292 | 0.0 | 2.0 | 0.00 | 0.00 | 0.00 | 56 | 1010.9 |
| 20260508040903 | 65 | 292 | 0.0 | 2.0 | 0.00 | 0.00 | 0.00 | 57 | 1010.7 |
| 20260508040004 | 66 | 292 | 0.0 | 2.0 | 0.00 | 0.00 | 0.00 | 57 | 1010.3 |
| 20260508035403 | 66 | 292 | 1.0 | 2.0 | 0.00 | 0.00 | 0.00 | 58 | 1010.5 |
| 20260508034714 | 65 | 292 | 1.0 | 2.0 | 0.00 | 0.00 | 0.00 | 59 | 1010.1 |
| 20260508033603 | 65 | 292 | 0.0 | 2.0 | 0.00 | 0.00 | 0.00 | 60 | 1010.1 |
| 20260508032913 | 65 | 0 | 0.0 | 0.0 | 0.00 | 0.00 | 0.00 | 60 | 1010.3 |
| 20260508032016 | 65 | 292 | 0.0 | 2.0 | 0.00 | 0.00 | 0.00 | 61 | 1010.1 |
| 20260508031113 | 65 | 292 | 0.0 | 2.0 | 0.00 | 0.00 | 0.00 | 60 | 1010.5 |
| 20260508030215 | 65 | 292 | 1.0 | 2.0 | 0.00 | 0.00 | 0.00 | 61 | 1010.2 |
| 20260508025403 | 65 | 292 | 0.0 | 2.0 | 0.00 | 0.00 | 0.00 | 61 | 1010.2 |
| 20260508024503 | 65 | 292 | 0.0 | 2.0 | 0.00 | 0.00 | 0.00 | 60 | 1010.5 |
| 20260508023603 | 65 | 0 | 0.0 | 0.0 | 0.00 | 0.00 | 0.00 | 60 | 1010.4 |
| 20260508022704 | 65 | 292 | 0.0 | 2.0 | 0.00 | 0.00 | 0.00 | 61 | 1010.5 |
| 20260508022016 | 65 | 292 | 0.0 | 2.0 | 0.00 | 0.00 | 0.00 | 61 | 1010.3 |
| 20260508021114 | 65 | 292 | 0.0 | 2.0 | 0.00 | 0.00 | 0.00 | 61 | 1010.4 |
| 20260508020216 | 65 | 292 | 0.0 | 2.0 | 0.00 | 0.00 | 0.00 | 62 | 1010.3 |
| 20260508015618 | 65 | 292 | 1.0 | 2.0 | 0.00 | 0.00 | 0.00 | 62 | 1010.5 |
| 20260508014715 | 65 | 292 | 0.0 | 2.0 | 0.00 | 0.00 | 0.00 | 63 | 1010.4 |
| 20260508013817 | 65 | 292 | 0.0 | 2.0 | 0.00 | 0.00 | 0.00 | 63 | 1010.7 |
| 20260508012704 | 65 | 292 | 0.0 | 2.0 | 0.00 | 0.00 | 0.00 | 63 | 1010.8 |
| 20260508012017 | 65 | 292 | 0.0 | 2.0 | 0.00 | 0.00 | 0.00 | 64 | 1010.8 |
| 20260508010903 | 65 | 292 | 0.0 | 2.0 | 0.00 | 0.00 | 0.00 | 63 | 1010.9 |
| 20260508010217 | 65 | 292 | 0.0 | 2.0 | 0.00 | 0.00 | 0.00 | 63 | 1010.9 |
| 20260508005613 | 65 | 292 | 0.0 | 2.0 | 0.00 | 0.00 | 0.00 | 63 | 1011.2 |
| 20260508004715 | 65 | 292 | 1.0 | 2.0 | 0.00 | 0.00 | 0.00 | 63 | 1011.3 |
| 20260508003603 | 65 | 292 | 0.0 | 2.0 | 0.00 | 0.00 | 0.00 | 63 | 1011.1 |
| 20260508002915 | 65 | 292 | 0.0 | 2.0 | 0.00 | 0.00 | 0.00 | 64 | 1011.2 |
| 20260508002018 | 65 | 292 | 0.0 | 2.0 | 0.00 | 0.00 | 0.00 | 64 | 1011.2 |
| 20260508001115 | 65 | 292 | 1.0 | 2.0 | 0.00 | 0.00 | 0.00 | 64 | 1011.3 |
| 20260508000219 | 65 | 292 | 0.0 | 2.0 | 0.00 | 0.00 | 0.00 | 65 | 1011.3 |
| 20260507235403 | 65 | 292 | 1.0 | 2.0 | 0.00 | 0.00 | 0.00 | 64 | 1011.4 |
| 20260507234503 | 66 | 286 | 2.0 | 4.0 | 0.00 | 0.00 | 0.00 | 64 | 1011.6 |